• In Österreich
  • Länderverzeichnis
  • Für 7 Tage
  • Wassertemperatur
  • Satellitenkarten
  • Wetterkarte
  • News
  • Widgets
  • user-avatar
    Anmelden

    Stündliche Wetter Limanowa

    Heute, 18 Februar, Sonntag

    Zeit Temperatur Niederschläge Wind Luftdruck Luftfeuchtigkeit
    00:00 -2°C° 0,1 mm 0 m/S 726 mmHg 89%
    01:00 -2°C° 0 mm 1 m/S 726 mmHg 90%
    02:00 -2°C° 0 mm 1 m/S 726 mmHg 91%
    03:00 -2°C° 0 mm 1 m/S 726 mmHg 92%
    04:00 -2°C° 0 mm 1 m/S 726 mmHg 93%
    05:00 -2°C° 0,1 mm 1 m/S 726 mmHg 94%
    06:00 -2°C° 0,1 mm 1 m/S 726 mmHg 94%
    07:00 -2°C° 0,1 mm 1 m/S 727 mmHg 95%
    08:00 -3°C° 0,1 mm 2 m/S 727 mmHg 93%
    09:00 -2°C° 0,1 mm 2 m/S 727 mmHg 91%
    10:00 -2°C° 0,1 mm 3 m/S 727 mmHg 88%
    11:00 -1°C° 0,1 mm 3 m/S 728 mmHg 85%
    12:00 -1°C° 0,1 mm 3 m/S 728 mmHg 82%
    13:00 -1°C° 0,1 mm 3 m/S 728 mmHg 78%
    14:00 -1°C° 0,1 mm 3 m/S 728 mmHg 79%
    15:00 -1°C° 0,1 mm 3 m/S 728 mmHg 79%
    16:00 -2°C° 0,1 mm 2 m/S 728 mmHg 79%
    17:00 -3°C° 0 mm 2 m/S 728 mmHg 82%
    18:00 -4°C° 0 mm 2 m/S 729 mmHg 84%
    19:00 -3°C° 0 mm 1 m/S 729 mmHg 87%
    20:00 -3°C° 0 mm 1 m/S 729 mmHg 88%
    21:00 -4°C° 0 mm 1 m/S 729 mmHg 89%
    22:00 -5°C° 0 mm 0 m/S 729 mmHg 89%
    23:00 -5°C° 0 mm 0 m/S 729 mmHg 89%

    Morgen, 19 Februar, Montag

    Zeit Temperatur Niederschläge Wind Luftdruck Luftfeuchtigkeit
    00:00 -5°C° 0 mm 0 m/S 729 mmHg 90%
    01:00 -5°C° 0 mm 0 m/S 729 mmHg 90%
    02:00 -6°C° 0 mm 1 m/S 729 mmHg 90%
    03:00 -6°C° 0 mm 1 m/S 728 mmHg 89%
    04:00 -6°C° 0 mm 1 m/S 728 mmHg 89%
    05:00 -6°C° 0 mm 1 m/S 728 mmHg 89%
    06:00 -6°C° 0 mm 1 m/S 728 mmHg 88%
    07:00 -7°C° 0 mm 1 m/S 727 mmHg 88%
    08:00 -4°C° 0 mm 1 m/S 727 mmHg 82%
    09:00 -2°C° 0 mm 1 m/S 728 mmHg 76%
    10:00 0°C° 0 mm 1 m/S 728 mmHg 70%
    11:00 0°C° 0 mm 1 m/S 727 mmHg 69%
    12:00 -1°C° 0 mm 2 m/S 727 mmHg 68%
    13:00 +1°C° 0 mm 2 m/S 727 mmHg 66%
    14:00 +1°C° 0 mm 2 m/S 726 mmHg 70%
    15:00 -1°C° 0 mm 2 m/S 726 mmHg 73%
    16:00 -1°C° 0 mm 2 m/S 726 mmHg 76%
    17:00 -2°C° 0 mm 2 m/S 725 mmHg 80%
    18:00 -4°C° 0 mm 2 m/S 725 mmHg 83%
    19:00 -3°C° 0 mm 1 m/S 725 mmHg 86%
    20:00 -3°C° 0 mm 1 m/S 725 mmHg 86%
    21:00 -3°C° 0 mm 1 m/S 725 mmHg 85%
    22:00 -3°C° 0 mm 1 m/S 725 mmHg 85%
    23:00 -3°C° 0 mm 1 m/S 725 mmHg 84%

    übermorgen, 20 Februar, Dienstag

    Zeit Temperatur Niederschläge Wind Luftdruck Luftfeuchtigkeit
    00:00 -3°C° 0 mm 1 m/S 724 mmHg 82%
    01:00 -4°C° 0 mm 1 m/S 724 mmHg 81%
    02:00 -4°C° 0 mm 1 m/S 724 mmHg 80%
    03:00 -4°C° 0 mm 1 m/S 723 mmHg 79%
    04:00 -4°C° 0 mm 1 m/S 723 mmHg 78%
    05:00 -4°C° 0 mm 1 m/S 723 mmHg 77%
    06:00 -4°C° 0 mm 1 m/S 723 mmHg 76%
    07:00 -4°C° 0 mm 1 m/S 723 mmHg 76%
    08:00 -2°C° 0 mm 1 m/S 723 mmHg 73%
    09:00 -1°C° 0 mm 1 m/S 723 mmHg 70%
    10:00 0°C° 0 mm 1 m/S 723 mmHg 67%
    11:00 -1°C° 0 mm 2 m/S 723 mmHg 67%
    12:00 +1°C° 0 mm 2 m/S 723 mmHg 67%
    13:00 +2°C° 0 mm 2 m/S 722 mmHg 67%
    14:00 +1°C° 0 mm 2 m/S 722 mmHg 70%
    15:00 +1°C° 0 mm 2 m/S 722 mmHg 73%
    16:00 -1°C° 0 mm 2 m/S 722 mmHg 76%
    17:00 -2°C° 0 mm 2 m/S 722 mmHg 79%
    18:00 -2°C° 0 mm 2 m/S 722 mmHg 82%
    19:00 -3°C° 0 mm 2 m/S 721 mmHg 85%
    20:00 -3°C° 0 mm 2 m/S 722 mmHg 86%
    21:00 -4°C° 0 mm 2 m/S 722 mmHg 87%
    22:00 -4°C° 0 mm 2 m/S 722 mmHg 88%
    23:00 -4°C° 0 mm 2 m/S 722 mmHg 89%

    21 Februar, Mittwoch

    Zeit Temperatur Niederschläge Wind Luftdruck Luftfeuchtigkeit
    00:00 -4°C° 0 mm 2 m/S 722 mmHg 90%
    01:00 -4°C° 0 mm 2 m/S 722 mmHg 91%
    02:00 -4°C° 0,1 mm 2 m/S 721 mmHg 91%
    03:00 -4°C° 0,1 mm 2 m/S 721 mmHg 91%
    04:00 -4°C° 0,1 mm 2 m/S 721 mmHg 91%
    05:00 -5°C° 0,1 mm 2 m/S 721 mmHg 91%
    06:00 -5°C° 0,1 mm 2 m/S 721 mmHg 91%
    07:00 -5°C° 0,1 mm 2 m/S 721 mmHg 90%
    08:00 -4°C° 0,1 mm 2 m/S 721 mmHg 88%
    09:00 -4°C° 0,1 mm 2 m/S 721 mmHg 86%
    10:00 -3°C° 0,1 mm 2 m/S 722 mmHg 84%
    11:00 -3°C° 0,1 mm 2 m/S 722 mmHg 83%
    12:00 -3°C° 0,1 mm 2 m/S 721 mmHg 81%
    13:00 -2°C° 0,1 mm 2 m/S 721 mmHg 80%
    14:00 -2°C° 0,1 mm 2 m/S 721 mmHg 81%
    15:00 -3°C° 0,1 mm 2 m/S 721 mmHg 82%
    16:00 -3°C° 0,1 mm 2 m/S 721 mmHg 83%
    17:00 -3°C° 0 mm 2 m/S 721 mmHg 84%
    18:00 -3°C° 0 mm 2 m/S 721 mmHg 85%
    19:00 -4°C° 0 mm 2 m/S 721 mmHg 87%
    20:00 -4°C° 0 mm 2 m/S 722 mmHg 88%
    21:00 -4°C° 0 mm 2 m/S 722 mmHg 89%
    22:00 -4°C° 0 mm 2 m/S 722 mmHg 90%
    23:00 -4°C° 0,1 mm 2 m/S 722 mmHg 90%

    22 Februar, Donnerstag

    Zeit Temperatur Niederschläge Wind Luftdruck Luftfeuchtigkeit
    00:00 -4°C° 0,1 mm 2 m/S 722 mmHg 91%
    01:00 -5°C° 0,1 mm 3 m/S 721 mmHg 91%
    02:00 -5°C° 0,1 mm 3 m/S 721 mmHg 91%
    03:00 -5°C° 0,1 mm 3 m/S 721 mmHg 92%
    04:00 -5°C° 0,1 mm 3 m/S 720 mmHg 92%
    05:00 -5°C° 0,1 mm 3 m/S 720 mmHg 92%
    06:00 -5°C° 0,1 mm 3 m/S 720 mmHg 92%
    07:00 -5°C° 0,1 mm 3 m/S 720 mmHg 91%
    08:00 -4°C° 0,2 mm 4 m/S 720 mmHg 90%
    09:00 -4°C° 0,2 mm 4 m/S 720 mmHg 89%
    10:00 -4°C° 0,2 mm 4 m/S 720 mmHg 87%
    11:00 -3°C° 0,2 mm 4 m/S 719 mmHg 87%
    12:00 -3°C° 0,2 mm 4 m/S 719 mmHg 86%
    13:00 -3°C° 0,2 mm 4 m/S 719 mmHg 86%
    14:00 -3°C° 0,3 mm 4 m/S 718 mmHg 87%
    15:00 -3°C° 0,3 mm 4 m/S 718 mmHg 88%
    16:00 -3°C° 0,3 mm 4 m/S 718 mmHg 90%
    17:00 -4°C° 0,4 mm 3 m/S 717 mmHg 91%
    18:00 -4°C° 0,4 mm 3 m/S 717 mmHg 92%
    19:00 -4°C° 0,4 mm 3 m/S 717 mmHg 94%
    20:00 -4°C° 0,4 mm 3 m/S 717 mmHg 94%
    21:00 -3°C° 0,4 mm 2 m/S 716 mmHg 95%
    22:00 -4°C° 0,4 mm 2 m/S 716 mmHg 95%
    23:00 -4°C° 0,2 mm 2 m/S 716 mmHg 95%

    23 Februar, Freitag

    Zeit Temperatur Niederschläge Wind Luftdruck Luftfeuchtigkeit
    00:00 -2°C° 0,2 mm 1 m/S 716 mmHg 95%
    01:00 -2°C° 0,2 mm 1 m/S 715 mmHg 96%
    02:00 -2°C° 0,1 mm 1 m/S 715 mmHg 96%
    03:00 -2°C° 0,1 mm 1 m/S 715 mmHg 96%
    04:00 -2°C° 0,1 mm 1 m/S 714 mmHg 96%
    05:00 -2°C° 0 mm 1 m/S 714 mmHg 96%
    06:00 -2°C° 0 mm 1 m/S 714 mmHg 96%
    07:00 -2°C° 0 mm 1 m/S 714 mmHg 96%
    08:00 -2°C° 0,1 mm 1 m/S 714 mmHg 94%
    09:00 -1°C° 0,1 mm 1 m/S 714 mmHg 92%
    10:00 0°C° 0,1 mm 1 m/S 714 mmHg 90%
    11:00 0°C° 0,2 mm 1 m/S 714 mmHg 90%
    12:00 0°C° 0,2 mm 1 m/S 714 mmHg 91%
    13:00 -1°C° 0,2 mm 2 m/S 713 mmHg 91%
    14:00 -1°C° 0,1 mm 2 m/S 713 mmHg 92%
    15:00 -2°C° 0,1 mm 2 m/S 713 mmHg 92%
    16:00 -2°C° 0,1 mm 2 m/S 712 mmHg 92%
    17:00 -2°C° 0,4 mm 2 m/S 712 mmHg 93%
    18:00 -2°C° 0,4 mm 2 m/S 712 mmHg 95%
    19:00 -3°C° 0,4 mm 2 m/S 712 mmHg 96%
    20:00 -3°C° 0,7 mm 2 m/S 712 mmHg 96%
    21:00 -3°C° 0,7 mm 2 m/S 711 mmHg 96%
    22:00 -3°C° 0,7 mm 2 m/S 711 mmHg 96%
    23:00 -4°C° 0,9 mm 3 m/S 711 mmHg 96%
    Mehr zeigen